QPF
0.04 0.04 0.04 0.04 0.05 0.05 0.05 0.05 0.04 0.03 0.01 0.01 0.00 0.00 0.00 0.01 0.01 0.02 0.02 0.02 0.02 0.02 0.02 0.02 0.02 0.03 0.04 0.05 0.07 0.10 0.10 0.10 0.09 0.08 0.07 0.06 0.06 0.05
0.04 0.04 0.04 0.03 0.03 0.03 0.04 0.04 0.04 0.04 0.02 0.01 0.00 0.00 0.00 0.00 0.01 0.01 0.02 0.02 0.02 0.02 0.01 0.02 0.02 0.03 0.03 0.04 0.06 0.07 0.09 0.09 0.08 0.08 0.08 0.07 0.05 0.04
0.06 0.05 0.04 0.04 0.03 0.03 0.02 0.02 0.02 0.03 0.03 0.01 0.00 0.00 0.00 0.00 0.00 0.01 0.01 0.02 0.02 0.02 0.02 0.02 0.02 0.02 0.02 0.03 0.04 0.06 0.07 0.08 0.08 0.08 0.08 0.07 0.06 0.04
0.07 0.05 0.05 0.04 0.04 0.03 0.03 0.02 0.01 0.01 0.02 0.02 0.01 0.00 0.00 0.00 0.00 0.01 0.01 0.01 0.01 0.02 0.02 0.02 0.02 0.02 0.02 0.03 0.03 0.04 0.05 0.06 0.06 0.06 0.06 0.06 0.05 0.04
0.07 0.07 0.06 0.06 0.06 0.05 0.04 0.03 0.02 0.01 0.01 0.01 0.01 0.01 0.01 0.00 0.00 0.01 0.01 0.01 0.01 0.02 0.03 0.03 0.03 0.02 0.02 0.03 0.04 0.04 0.04 0.04 0.05 0.05 0.05 0.04 0.04 0.03
0.05 0.07 0.07 0.07 0.06 0.05 0.05 0.04 0.03 0.03 0.02 0.02 0.01 0.01 0.01 0.01 0.01 0.01 0.01 0.02 0.02 0.02 0.03 0.04 0.04 0.03 0.03 0.04 0.04 0.04 0.04 0.04 0.04 0.04 0.04 0.04 0.04 0.03
0.03 0.04 0.05 0.06 0.06 0.06 0.05 0.05 0.05 0.05 0.04 0.03 0.02 0.01 0.01 0.01 0.01 0.01 0.02 0.02 0.03 0.03 0.03 0.05 0.05 0.04 0.04 0.05 0.05 0.04 0.04 0.04 0.04 0.04 0.04 0.04 0.04 0.04
0.02 0.02 0.03 0.04 0.04 0.05 0.05 0.05 0.05 0.06 0.06 0.05 0.03 0.02 0.01 0.01 0.01 0.02 0.03 0.03 0.03 0.03 0.03 0.05 0.06 0.05 0.05 0.04 0.04 0.04 0.04 0.04 0.03 0.03 0.03 0.03 0.03 0.03
0.02 0.02 0.02 0.02 0.03 0.03 0.03 0.04 0.05 0.05 0.05 0.05 0.04 0.02 0.01 0.01 0.01 0.02 0.03 0.05 0.05 0.04 0.05 0.05 0.06 0.07 0.06 0.05 0.04 0.04 0.04 0.03 0.03 0.03 0.03 0.03 0.03 0.03
0.02 0.01 0.02 0.02 0.02 0.03 0.04 0.04 0.04 0.04 0.03 0.03 0.03 0.02 0.02 0.02 0.02 0.03 0.05 0.06 0.06 0.07 0.07 0.08 0.07 0.07 0.06 0.05 0.04 0.04 0.04 0.03 0.03 0.02 0.02 0.02 0.03 0.03
0.02 0.02 0.02 0.02 0.02 0.03 0.04 0.04 0.04 0.03 0.03 0.04 0.03 0.04 0.04 0.04 0.03 0.05 0.07 0.08 0.08 0.07 0.08 0.08 0.08 0.08 0.08 0.07 0.05 0.04 0.04 0.03 0.03 0.03 0.03 0.03 0.03 0.03
0.03 0.03 0.03 0.03 0.03 0.03 0.04 0.05 0.05 0.03 0.03 0.04 0.04 0.04 0.03 0.03 0.04 0.03 0.04 0.06 0.06 0.06 0.06 0.07 0.08 0.08 0.09 0.09 0.07 0.06 0.05 0.05 0.04 0.03 0.03 0.03 0.03 0.03
0.04 0.03 0.03 0.04 0.04 0.04 0.04 0.05 0.04 0.04 0.04 0.05 0.04 0.04 0.04 0.03 0.03 0.03 0.03 0.05 0.06 0.05 0.04 0.06 0.07 0.08 0.08 0.07 0.07 0.07 0.06 0.05 0.04 0.03 0.04 0.04 0.04 0.03
0.05 0.04 0.03 0.04 0.04 0.04 0.04 0.05 0.05 0.05 0.05 0.05 0.05 0.05 0.04 0.04 0.03 0.03 0.03 0.04 0.04 0.04 0.04 0.05 0.07 0.06 0.07 0.07 0.06 0.06 0.06 0.06 0.04 0.03 0.04 0.05 0.04 0.04
0.05 0.04 0.04 0.04 0.04 0.04 0.04 0.05 0.05 0.05 0.05 0.05 0.05 0.04 0.04 0.03 0.04 0.05 0.06 0.06 0.06 0.05 0.06 0.07 0.07 0.06 0.07 0.08 0.06 0.05 0.06 0.07 0.06 0.05 0.05 0.05 0.05 0.05
0.04 0.04 0.04 0.04 0.04 0.04 0.04 0.04 0.04 0.04 0.05 0.05 0.04 0.04 0.04 0.05 0.05 0.05 0.06 0.08 0.09 0.08 0.08 0.07 0.07 0.07 0.08 0.08 0.07 0.07 0.06 0.08 0.08 0.06 0.05 0.05 0.04 0.05
0.06 0.07 0.06 0.04 0.04 0.04 0.03 0.03 0.03 0.04 0.04 0.04 0.04 0.04 0.05 0.05 0.05 0.05 0.06 0.07 0.08 0.07 0.07 0.08 0.08 0.08 0.08 0.08 0.08 0.08 0.07 0.07 0.07 0.07 0.05 0.04 0.04 0.04
0.07 0.07 0.06 0.06 0.05 0.04 0.04 0.03 0.03 0.03 0.04 0.04 0.04 0.05 0.05 0.05 0.05 0.05 0.06 0.07 0.07 0.07 0.07 0.07 0.08 0.09 0.10 0.10 0.09 0.07 0.06 0.07 0.07 0.07 0.06 0.04 0.04 0.03
0.06 0.06 0.06 0.06 0.05 0.05 0.04 0.03 0.03 0.03 0.03 0.04 0.04 0.05 0.06 0.07 0.06 0.06 0.07 0.08 0.08 0.08 0.08 0.08 0.07 0.07 0.07 0.07 0.07 0.06 0.05 0.05 0.06 0.07 0.07 0.05 0.03 0.03
0.05 0.05 0.06 0.06 0.06 0.05 0.05 0.04 0.03 0.03 0.03 0.04 0.05 0.06 0.07 0.08 0.08 0.07 0.08 0.08 0.08 0.08 0.08 0.08 0.07 0.05 0.05 0.05 0.05 0.06 0.05 0.05 0.05 0.06 0.06 0.05 0.04 0.03
0.04 0.04 0.05 0.05 0.05 0.05 0.05 0.04 0.04 0.04 0.04 0.04 0.05 0.06 0.07 0.09 0.09 0.09 0.09 0.10 0.09 0.08 0.08 0.07 0.06 0.05 0.05 0.06 0.07 0.06 0.06 0.06 0.05 0.05 0.05 0.05 0.05 0.05
0.03 0.03 0.04 0.04 0.05 0.05 0.05 0.04 0.04 0.04 0.04 0.05 0.05 0.06 0.07 0.08 0.08 0.09 0.10 0.10 0.09 0.08 0.07 0.07 0.07 0.07 0.07 0.07 0.05 0.05 0.06 0.06 0.06 0.06 0.05 0.05 0.04 0.04
0.04 0.04 0.04 0.03 0.04 0.04 0.04 0.04 0.04 0.04 0.05 0.06 0.06 0.06 0.07 0.07 0.08 0.09 0.09 0.08 0.08 0.08 0.08 0.09 0.09 0.08 0.07 0.05 0.05 0.05 0.05 0.06 0.07 0.07 0.07 0.06 0.04 0.03
MSLP
1027.73 1027.77 1027.80 1027.77 1027.66 1027.45 1027.12 1026.69 1026.20 1025.68 1025.18 1024.71 1024.32 1023.99 1023.72 1023.47 1023.21 1022.92 1022.56 1022.13 1021.63 1021.07 1020.50 1019.91 1019.36 1018.83 1018.35 1017.89 1017.45 1016.99 1016.51 1015.98 1015.39 1014.76 1014.08 1013.38 1012.68 1012.00
1027.07 1027.12 1027.17 1027.17 1027.09 1026.91 1026.61 1026.22 1025.75 1025.25 1024.76 1024.30 1023.91 1023.58 1023.31 1023.07 1022.82 1022.55 1022.23 1021.84 1021.38 1020.88 1020.35 1019.81 1019.28 1018.77 1018.28 1017.81 1017.35 1016.87 1016.36 1015.81 1015.22 1014.59 1013.92 1013.23 1012.54 1011.87
1026.26 1026.32 1026.38 1026.40 1026.35 1026.20 1025.94 1025.59 1025.17 1024.70 1024.24 1023.80 1023.42 1023.10 1022.83 1022.59 1022.35 1022.10 1021.79 1021.44 1021.02 1020.57 1020.08 1019.57 1019.07 1018.58 1018.10 1017.62 1017.14 1016.65 1016.12 1015.56 1014.97 1014.35 1013.70 1013.04 1012.38 1011.73
1025.35 1025.42 1025.48 1025.52 1025.49 1025.38 1025.16 1024.86 1024.48 1024.06 1023.63 1023.23 1022.87 1022.56 1022.29 1022.05 1021.82 1021.57 1021.28 1020.94 1020.55 1020.13 1019.68 1019.21 1018.74 1018.27 1017.80 1017.33 1016.85 1016.34 1015.81 1015.26 1014.67 1014.07 1013.45 1012.83 1012.20 1011.59
1024.39 1024.46 1024.53 1024.57 1024.57 1024.48 1024.31 1024.05 1023.72 1023.35 1022.96 1022.59 1022.26 1021.97 1021.71 1021.47 1021.23 1020.97 1020.69 1020.36 1019.99 1019.59 1019.17 1018.74 1018.29 1017.85 1017.40 1016.95 1016.47 1015.97 1015.45 1014.90 1014.34 1013.75 1013.17 1012.58 1012.00 1011.43
1023.40 1023.46 1023.53 1023.58 1023.59 1023.52 1023.37 1023.15 1022.86 1022.54 1022.20 1021.87 1021.57 1021.30 1021.05 1020.82 1020.58 1020.32 1020.04 1019.72 1019.37 1018.99 1018.59 1018.19 1017.78 1017.36 1016.94 1016.50 1016.04 1015.55 1015.04 1014.51 1013.96 1013.41 1012.85 1012.30 1011.75 1011.21
1022.38 1022.43 1022.49 1022.54 1022.54 1022.48 1022.34 1022.14 1021.89 1021.61 1021.31 1021.03 1020.76 1020.52 1020.30 1020.09 1019.86 1019.62 1019.35 1019.05 1018.72 1018.36 1017.99 1017.62 1017.24 1016.85 1016.45 1016.03 1015.59 1015.11 1014.61 1014.09 1013.55 1013.01 1012.47 1011.94 1011.42 1010.90
1021.31 1021.35 1021.39 1021.41 1021.39 1021.31 1021.18 1020.99 1020.75 1020.50 1020.25 1020.01 1019.79 1019.60 1019.42 1019.25 1019.07 1018.86 1018.63 1018.36 1018.06 1017.75 1017.41 1017.07 1016.72 1016.36 1015.98 1015.57 1015.13 1014.66 1014.16 1013.64 1013.10 1012.55 1012.01 1011.48 1010.96 1010.43
1020.18 1020.19 1020.19 1020.17 1020.11 1020.01 1019.85 1019.65 1019.42 1019.19 1018.97 1018.78 1018.63 1018.50 1018.39 1018.28 1018.17 1018.03 1017.87 1017.66 1017.43 1017.16 1016.88 1016.58 1016.26 1015.91 1015.55 1015.15 1014.71 1014.22 1013.71 1013.16 1012.60 1012.03 1011.47 1010.91 1010.36 1009.80
1018.99 1018.95 1018.91 1018.83 1018.72 1018.57 1018.37 1018.15 1017.92 1017.70 1017.51 1017.37 1017.27 1017.23 1017.21 1017.20 1017.18 1017.15 1017.08 1016.97 1016.81 1016.62 1016.40 1016.14 1015.85 1015.53 1015.17 1014.76 1014.30 1013.79 1013.24 1012.66 1012.06 1011.45 1010.84 1010.24 1009.64 1009.04
1017.79 1017.69 1017.58 1017.45 1017.28 1017.07 1016.83 1016.57 1016.32 1016.10 1015.94 1015.84 1015.81 1015.84 1015.93 1016.03 1016.14 1016.22 1016.27 1016.27 1016.22 1016.12 1015.96 1015.75 1015.50 1015.18 1014.82 1014.39 1013.90 1013.35 1012.76 1012.13 1011.48 1010.82 1010.16 1009.50 1008.85 1008.19
1016.63 1016.48 1016.31 1016.12 1015.89 1015.62 1015.33 1015.03 1014.75 1014.53 1014.38 1014.32 1014.35 1014.46 1014.64 1014.86 1015.09 1015.30 1015.48 1015.60 1015.65 1015.64 1015.55 1015.39 1015.15 1014.85 1014.47 1014.01 1013.49 1012.90 1012.26 1011.59 1010.89 1010.18 1009.47 1008.76 1008.05 1007.34
1015.61 1015.42 1015.21 1014.97 1014.69 1014.37 1014.03 1013.69 1013.38 1013.14 1012.99 1012.95 1013.02 1013.20 1013.46 1013.78 1014.12 1014.45 1014.74 1014.97 1015.11 1015.18 1015.14 1015.02 1014.80 1014.48 1014.08 1013.60 1013.03 1012.41 1011.73 1011.01 1010.27 1009.52 1008.78 1008.03 1007.29 1006.54
1014.82 1014.61 1014.39 1014.12 1013.80 1013.44 1013.06 1012.68 1012.34 1012.08 1011.92 1011.88 1011.98 1012.19 1012.51 1012.89 1013.31 1013.72 1014.10 1014.41 1014.62 1014.73 1014.73 1014.62 1014.40 1014.07 1013.64 1013.12 1012.52 1011.86 1011.14 1010.40 1009.63 1008.87 1008.10 1007.34 1006.57 1005.80
1014.32 1014.12 1013.90 1013.63 1013.30 1012.91 1012.50 1012.09 1011.72 1011.43 1011.25 1011.20 1011.29 1011.52 1011.86 1012.27 1012.73 1013.18 1013.60 1013.94 1014.19 1014.32 1014.32 1014.20 1013.95 1013.59 1013.12 1012.56 1011.93 1011.23 1010.49 1009.73 1008.95 1008.18 1007.41 1006.64 1005.87 1005.09
1014.12 1013.95 1013.75 1013.50 1013.17 1012.78 1012.36 1011.93 1011.53 1011.21 1011.00 1010.93 1010.99 1011.20 1011.53 1011.93 1012.38 1012.83 1013.25 1013.59 1013.82 1013.93 1013.90 1013.75 1013.46 1013.05 1012.54 1011.93 1011.26 1010.53 1009.77 1008.99 1008.21 1007.43 1006.66 1005.89 1005.12 1004.33
1014.17 1014.05 1013.89 1013.66 1013.35 1012.97 1012.54 1012.10 1011.69 1011.35 1011.11 1011.00 1011.03 1011.19 1011.48 1011.84 1012.25 1012.66 1013.02 1013.32 1013.50 1013.56 1013.48 1013.26 1012.92 1012.45 1011.89 1011.23 1010.51 1009.75 1008.96 1008.16 1007.36 1006.57 1005.79 1005.01 1004.23 1003.43
1014.38 1014.30 1014.17 1013.97 1013.68 1013.32 1012.90 1012.46 1012.04 1011.69 1011.43 1011.28 1011.27 1011.38 1011.61 1011.90 1012.24 1012.57 1012.87 1013.08 1013.19 1013.18 1013.03 1012.74 1012.33 1011.80 1011.18 1010.47 1009.71 1008.90 1008.07 1007.23 1006.40 1005.57 1004.75 1003.94 1003.12 1002.29
1014.62 1014.57 1014.46 1014.27 1014.00 1013.66 1013.25 1012.83 1012.41 1012.05 1011.78 1011.61 1011.55 1011.61 1011.77 1011.99 1012.24 1012.48 1012.69 1012.81 1012.84 1012.74 1012.51 1012.16 1011.69 1011.10 1010.42 1009.66 1008.84 1007.99 1007.10 1006.21 1005.31 1004.41 1003.53 1002.64 1001.75 1000.86
1014.77 1014.72 1014.62 1014.44 1014.18 1013.84 1013.46 1013.05 1012.65 1012.29 1012.01 1011.82 1011.73 1011.74 1011.82 1011.96 1012.13 1012.28 1012.39 1012.42 1012.36 1012.19 1011.90 1011.49 1010.97 1010.33 1009.61 1008.80 1007.93 1007.01 1006.06 1005.08 1004.09 1003.10 1002.11 1001.13 1000.14 999.16
1014.77 1014.70 1014.57 1014.38 1014.12 1013.79 1013.42 1013.03 1012.64 1012.30 1012.02 1011.81 1011.69 1011.65 1011.67 1011.73 1011.81 1011.87 1011.89 1011.84 1011.71 1011.47 1011.13 1010.69 1010.13 1009.47 1008.71 1007.87 1006.95 1005.96 1004.93 1003.86 1002.77 1001.66 1000.55 999.44 998.34 997.26
1014.60 1014.48 1014.32 1014.10 1013.82 1013.49 1013.12 1012.74 1012.38 1012.04 1011.76 1011.54 1011.39 1011.30 1011.25 1011.24 1011.23 1011.20 1011.14 1011.02 1010.83 1010.56 1010.19 1009.72 1009.15 1008.48 1007.71 1006.84 1005.88 1004.84 1003.73 1002.56 1001.35 1000.12 998.87 997.64 996.43 995.25
1014.28 1014.10 1013.89 1013.63 1013.32 1012.98 1012.62 1012.24 1011.88 1011.55 1011.26 1011.02 1010.83 1010.68 1010.57 1010.47 1010.38 1010.28 1010.15 1009.97 1009.73 1009.43 1009.05 1008.58 1008.02 1007.35 1006.58 1005.70 1004.70 1003.61 1002.43 1001.17 999.85 998.50 997.14 995.80 994.49 993.25
Thickness
5413 5416 5419 5423 5425 5428 5431 5433 5437 5446 5456 5461 5462 5464 5465 5469 5473 5478 5484 5489 5494 5500 5505 5511 5516 5520 5525 5529 5532 5535 5539 5541 5543 5545 5547 5549 5551 5553
5398 5401 5403 5407 5410 5412 5416 5418 5421 5427 5435 5446 5446 5448 5450 5454 5457 5462 5468 5474 5480 5486 5491 5497 5503 5508 5512 5516 5519 5522 5526 5529 5532 5534 5536 5538 5540 5542
5383 5385 5389 5391 5395 5398 5401 5404 5407 5410 5418 5428 5429 5432 5435 5439 5443 5447 5453 5459 5465 5472 5477 5483 5489 5494 5499 5503 5507 5510 5514 5516 5519 5522 5523 5526 5528 5531
5369 5371 5375 5377 5381 5384 5388 5391 5394 5397 5402 5409 5414 5417 5421 5424 5429 5433 5438 5444 5451 5457 5463 5469 5475 5480 5485 5490 5494 5497 5501 5503 5506 5509 5512 5514 5516 5517
5355 5358 5362 5364 5368 5372 5376 5379 5382 5386 5389 5394 5400 5403 5407 5411 5414 5419 5425 5430 5436 5443 5449 5455 5461 5466 5471 5476 5481 5484 5488 5491 5494 5496 5498 5501 5503 5505
5344 5347 5350 5352 5356 5360 5364 5368 5371 5374 5377 5381 5386 5390 5394 5397 5400 5406 5411 5416 5422 5428 5434 5440 5446 5451 5457 5462 5468 5471 5474 5477 5480 5482 5485 5488 5490 5493
5334 5336 5339 5342 5345 5349 5354 5358 5360 5362 5365 5369 5374 5378 5382 5384 5389 5393 5398 5403 5409 5413 5419 5425 5431 5437 5442 5447 5452 5456 5460 5463 5466 5469 5472 5474 5477 5479
5324 5327 5329 5332 5335 5339 5344 5348 5351 5353 5356 5359 5363 5368 5372 5374 5378 5381 5384 5389 5397 5402 5404 5411 5416 5421 5427 5433 5438 5442 5446 5450 5453 5456 5459 5461 5464 5467
5312 5315 5319 5322 5325 5328 5333 5338 5342 5345 5348 5351 5355 5359 5362 5366 5367 5370 5373 5377 5384 5388 5390 5398 5402 5408 5415 5420 5425 5430 5433 5436 5440 5443 5446 5449 5451 5454
5302 5305 5309 5313 5316 5319 5324 5330 5334 5338 5341 5343 5348 5352 5353 5355 5358 5361 5364 5367 5371 5376 5379 5385 5390 5396 5403 5407 5412 5417 5421 5424 5427 5431 5433 5436 5439 5441
5293 5297 5300 5305 5310 5312 5317 5322 5327 5331 5333 5336 5340 5343 5345 5348 5349 5350 5353 5356 5362 5368 5370 5374 5379 5383 5389 5396 5401 5405 5409 5412 5415 5418 5421 5424 5426 5427
5286 5290 5293 5297 5302 5305 5309 5313 5318 5323 5325 5328 5331 5333 5335 5337 5340 5342 5345 5347 5352 5357 5362 5363 5367 5370 5376 5383 5388 5392 5395 5399 5402 5405 5408 5410 5412 5414
5276 5281 5285 5289 5293 5298 5302 5307 5311 5314 5317 5319 5321 5323 5326 5328 5331 5334 5337 5340 5344 5349 5353 5354 5356 5358 5362 5369 5374 5378 5382 5385 5389 5392 5395 5398 5400 5402
5266 5271 5276 5280 5285 5289 5294 5299 5302 5305 5307 5309 5312 5314 5317 5320 5323 5325 5328 5331 5336 5341 5344 5346 5348 5351 5352 5355 5361 5365 5368 5372 5376 5380 5383 5385 5388 5391
5257 5262 5267 5272 5277 5280 5284 5289 5292 5294 5297 5300 5303 5306 5308 5311 5313 5316 5319 5322 5326 5330 5334 5337 5340 5342 5344 5347 5351 5353 5356 5360 5364 5368 5371 5374 5377 5379
5248 5253 5258 5262 5266 5271 5275 5277 5280 5284 5287 5291 5293 5296 5298 5301 5304 5307 5310 5313 5316 5321 5325 5328 5331 5333 5336 5339 5341 5344 5347 5349 5353 5356 5359 5362 5364 5368
5240 5244 5247 5251 5256 5259 5263 5267 5270 5274 5277 5280 5284 5287 5290 5293 5296 5299 5301 5304 5307 5312 5316 5319 5321 5323 5326 5329 5333 5336 5338 5339 5342 5345 5347 5350 5354 5357
5231 5234 5237 5241 5245 5250 5253 5257 5261 5264 5268 5271 5274 5277 5280 5284 5287 5290 5293 5296 5299 5303 5307 5310 5312 5313 5315 5319 5324 5328 5329 5330 5332 5334 5337 5340 5344 5346
5221 5224 5227 5231 5235 5239 5243 5247 5251 5255 5258 5261 5265 5267 5271 5274 5279 5283 5286 5288 5292 5296 5299 5301 5303 5306 5309 5313 5314 5317 5320 5321 5322 5324 5327 5331 5335 5338
5212 5214 5217 5222 5226 5230 5234 5238 5242 5246 5249 5252 5256 5259 5262 5266 5271 5275 5279 5282 5285 5288 5291 5293 5296 5299 5302 5304 5304 5306 5310 5313 5314 5316 5317 5320 5323 5327
5202 5205 5209 5213 5217 5222 5226 5230 5233 5237 5240 5244 5248 5251 5255 5259 5264 5268 5273 5277 5279 5282 5285 5287 5289 5290 5291 5291 5293 5297 5300 5303 5306 5308 5309 5310 5313 5316
5194 5197 5201 5205 5209 5213 5217 5221 5226 5229 5232 5236 5240 5245 5249 5253 5257 5262 5266 5269 5272 5275 5276 5278 5279 5280 5282 5284 5285 5287 5290 5292 5295 5297 5301 5304 5305 5308
5186 5190 5194 5198 5202 5206 5210 5213 5218 5222 5225 5229 5234 5238 5242 5247 5251 5254 5258 5261 5264 5266 5267 5269 5270 5272 5274 5275 5275 5277 5280 5283 5285 5287 5290 5294 5297 5301